Showing default

SNUSAT-2, 43782

Orbit data source: Space-Track

SNUSAT-2, 43782 is a payload satellite owned by SNU (KR) in SSO that was launched on Mon, 03 Dec 2018 UTC via an FALCON 9 launch vehicle from the Air Force Western Test Range (AFWTR). Payload-class satellites include a variety of spacecraft equipped with specific instruments for various scientific and technological missions. These include communications satellites like Starlink; space stations such as the ISS; scientific satellites like the Hubble; Earth observation satellites from companies like Planet Labs, Umbra, and HawkEye 360; GPS; miniature CubeSats for education and research; and military/defense satellites.

Loading next visibility...
Identifier
43782, 2018-099AA
Orbit
SSO
Last TLE update
17 hours ago
Origin
Manufacturer
SNU
Mission
Operational Amateur Technology
Bus & Motor
CUBESAT 3U, Unknown motor
Mass
4 kg wet, 4 kg dry
Launch date (UTC)
2018-12-03 (7 years ago)
Launch vehicle
FALCON 9
Launch site
Air Force Western Test Range (AFWTR)
Object type
Payload
Rocket body
Debris
Shape & HBR
Box, 0.3 m
Radar Cross Section
0.035 m², Small (<0.1 m²)

Expand to show TLE details & history

TLE from 17 hours ago
0 SNUSAT-2
1 43782U 18099AA  25191.38912969  .00003713  00000-0  20214-3 0  9992
2 43782  97.4581 245.6389 0013009  53.5539 306.6890 15.14977586361162
Epoch: 2025-07-10T09:20Z
TLE epoch observation values (Epoch: 2025-07-10T09:20:20.805Z)
Latitude
-0.00004°
Longitude
176.9961°
Altitude
518.773 km
Speed
7.607 km/s
True Right ascension
16h 22m 33s
True Declination
0° 00' 00"
Sunlit
Object was in full shadow at epoch
Visualization orbit readout
Latitude
-48.49391°
Longitude
-173.83982°
Altitude
541.4 km
Speed
7.589 km/s
Apparent Right ascension
22h 20m 06s
Apparent Declination
-73° 58' 07"
Sunlit
Object is in full shadow
Visualization observer readout
Local Sidereal Time
14:50:14
Azimuth
159.132° S
Elevation
-44.24°
Doppler factor
1
Orbital elements
Apogee altitude
526.993 km
Perigee altitude
509.05 km
Semi-major axis
6,896.158 km
Eccentricity
0.0013
Inclination
97.4581°
RAAN
245.6389°
Arg. of periapsis
53.5539°
True anomaly
Unknown
Mean anomaly
306.689°
Eccentric anomaly
Unknown
Mean motion
3.78994 °/min
Orbital period
94.99 mins
BSTAR
0.00020214
Loading maneuver chart data...
Loading SW <> Apogee altitude chart data...
Loading historical data...
Loading historical data...
Loading historical data...
Loading historical data...
Loading historical data...
Loading historical data...
Loading historical data...

SNUSAT-2 Visibility forecast

Observer location: undefined°, undefined°

Span
Click to sort rows by Start time (UTC) header in descending order
Start Az.
Max El. time (UTC)
Max El. Az.
Max El.
End time (UTC)
End Az.
5 mins2025-07-11 02:55:39.350Z114.172° SE2025-07-11 02:57:39.350Z74.107° E21.326°2025-07-11 03:00:39.350Z18.053° NNE
4 mins2025-07-11 04:30:39.350Z237.348° WSW2025-07-11 04:31:39.350Z259.093° W19.664°2025-07-11 04:34:39.350Z314.622° NW
5 mins2025-07-11 16:02:39.350Z45.663° ENE2025-07-11 16:04:39.350Z103.263° ESE30.418°2025-07-11 16:07:39.350Z163.689° S
|